This is the latest recevied weather packets stored in our database for station/object E25WOP-13. If no packets are shown the sender has not sent any weather packets the latest 10 day(s).
| Time | Temp. | Humidity | Pressure | Rain* | Wind** | Luminosity | Snow |
|---|---|---|---|---|---|---|---|
| 1777368012 | -17.78° C | - | 1003.3 hPa | 0 mm | - | - | - |
| 1777367412 | -17.78° C | - | 1003.5 hPa | 0 mm | - | - | - |
| 1777366812 | -17.78° C | - | 1003.9 hPa | 0 mm | - | - | - |
| 1777366212 | -17.78° C | - | 1004 hPa | 0 mm | - | - | - |
| 1777365612 | -17.78° C | - | 1003.8 hPa | 0 mm | - | - | - |
| 1777365012 | 33.33° C | 64% | 1004.1 hPa | 0 mm | - | 243 W/m² | - |
| 1777364412 | 32.78° C | 65% | 1004.1 hPa | 0 mm | - | 332 W/m² | - |
| 1777363812 | 32.78° C | 67% | 1004.5 hPa | 0 mm | - | 347 W/m² | - |
| 1777363212 | 32.78° C | 67% | 1004.3 hPa | 0 mm | - | 311 W/m² | - |
| 1777362612 | 33.33° C | 67% | 1004.4 hPa | 0 mm | - | 350 W/m² | - |
| 1777362012 | 32.78° C | 67% | 1004.6 hPa | 0 mm | - | 419 W/m² | - |
| 1777361412 | 32.78° C | 66% | 1004.7 hPa | 0 mm | - | 445 W/m² | - |
| 1777360812 | 32.78° C | 68% | 1004.6 hPa | 0 mm | - | 448 W/m² | - |
| 1777360212 | 32.78° C | 69% | 1004.9 hPa | 0 mm | - | 512 W/m² | - |
| 1777359612 | 32.78° C | 68% | 1005.2 hPa | 0 mm | - | 727 W/m² | - |
| 1777359012 | 32.78° C | 67% | 1005 hPa | 0 mm | - | 1100 W/m² | - |
| 1777358412 | 32.78° C | 69% | 1005.2 hPa | 0 mm | - | 1136 W/m² | - |
| 1777357812 | 32.78° C | 67% | 1005.4 hPa | 0 mm | - | 1138 W/m² | - |
| 1777357212 | 32.78° C | 70% | 1005.5 hPa | 0 mm | - | 1139 W/m² | - |
| 1777356612 | 32.78° C | 67% | 1005.9 hPa | 0 mm | - | 939 W/m² | - |
| 1777356012 | 32.78° C | 68% | 1006 hPa | 0 mm | - | 933 W/m² | - |
| 1777355412 | 32.78° C | 67% | 1006.4 hPa | 0 mm | - | 973 W/m² | - |
| 1777354812 | 32.78° C | 70% | 1006.6 hPa | 0 mm | - | 914 W/m² | - |
| 1777354212 | 32.78° C | 66% | 1006.7 hPa | 0 mm | - | 1143 W/m² | - |
| 1777353611 | 33.33° C | 67% | 1007 hPa | 0 mm | - | 1142 W/m² | - |
* Rain latest hour (hover to see other rain measurements)
** Current wind speed in m/s (hover to see current wind gust speed)